Columbus, OH

5:15 PM EDT on August 29, 2016 (GMT -0400)
Port Columbus International

Weather History for KCMH - January, 2013

Change the Weather History Date:

Saturday, January 5, 2013

  Actual Average Record
Temperature  
Mean Temperature 27 °F 30 °F  
Max Temperature 37 °F 36 °F 65 °F (1998)
Min Temperature 17 °F 23 °F -16 °F (1884)
Degree Days  
Heating Degree Days 38 35  
Month to date heating degree days 205 175  
Since 1 July heating degree days 2106 2166  
Cooling Degree Days 0 0  
Month to date cooling degree days 0 0  
Year to date cooling degree days 0 0  
Moisture  
Dew Point 22 °F    
Average Humidity 76    
Maximum Humidity 92    
Minimum Humidity 59    
Precipitation  
Precipitation T in 0.10 in 2.21 in (2005)
Month to date precipitation 0.04 0.48  
Year to date precipitation 0.04 0.48  
Snow  
Snow T in 0.20 in 2.50 in (2003)
Month to date snowfall 0.4 1.3  
Since 1 July snowfall 16.1 7.4  
Snow Depth 5.00 in    
Sea Level Pressure  
Sea Level Pressure 30.29 in    
Wind  
Wind Speed 5 mph (SSW)    
Max Wind Speed 16 mph    
Max Gust Speed 21 mph    
Visibility 9 miles    
Events      
T = Trace of Precipitation, MM = Missing Value Source: NWS Daily Summary

Daily Weather History Graph

Daily Weather History Graph

Search for Another Location

Airport or City:

Trip Planner

Search our weather history database for the weather conditions in past years. The results will help you decide how hot, cold, wet, or windy it might be!

Date:

Astronomy

Jan. 05, 2013 Rise Set
Actual Time 7:53 AM EST 5:20 PM EST
Civil Twilight 7:23 AM EST 5:51 PM EST
Nautical Twilight 6:49 AM EST 6:24 PM EST
Astronomical Twilight 6:16 AM EST 6:57 PM EST
Moon 12:58 AM EST (1/5) 12:09 PM EST (1/5)
Length of Visible Light 10h 27m
Length of Day
9h 27m
Last Quarter, 44% of the Moon is Illuminated
Jan 5
Last Quarter
Jan 11
New
Jan 18
First Quarter
Jan 26
Full
Feb 3
Last Quarter

Hourly Weather History & Observations

Time (EST) Temp. Windchill Dew Point Humidity Pressure Visibility Wind Dir Wind Speed Gust Speed Precip Events Conditions
12:51 AM 21.0 °F 13.4 °F 15.1 °F 78% 30.34 in 10.0 mi SSW 5.8 mph - N/A   Clear
1:51 AM 21.0 °F 13.4 °F 15.1 °F 78% 30.35 in 10.0 mi SSW 5.8 mph - N/A   Clear
2:51 AM 19.0 °F - 17.1 °F 92% 30.36 in 9.0 mi Calm Calm - N/A   Clear
3:51 AM 19.4 °F - 17.6 °F 93% 30.32 in 9.0 mi Calm Calm - N/A   Clear
4:51 AM 19.4 °F 10.4 °F 15.8 °F 86% 30.33 in 7.0 mi SSW 6.9 mph - N/A   Clear
5:51 AM 17.1 °F 11.7 °F 15.1 °F 92% 30.37 in 6.0 mi SSE 3.5 mph - N/A   Clear
6:51 AM 19.4 °F 12.8 °F 17.6 °F 93% 30.35 in 6.0 mi SSE 4.6 mph - N/A   Clear
7:51 AM 21.0 °F 14.6 °F 17.1 °F 85% 30.40 in 5.0 mi South 4.6 mph - N/A   Clear
8:51 AM 21.2 °F - 19.4 °F 93% 30.35 in 7.0 mi Calm Calm - N/A   Clear
9:51 AM 24.8 °F 17.9 °F 21.2 °F 86% 30.34 in 7.0 mi SSW 5.8 mph - N/A   Clear
10:51 AM 28.9 °F 21.1 °F 23.0 °F 78% 30.39 in 9.0 mi SSW 8.1 mph - N/A   Scattered Clouds
11:51 AM 30.9 °F 25.2 °F 24.1 °F 76% 30.35 in 10.0 mi SSW 5.8 mph - N/A   Partly Cloudy
12:51 PM 33.1 °F 24.9 °F 25.0 °F 72% 30.32 in 10.0 mi SW 10.4 mph - N/A   Scattered Clouds
1:51 PM 36.0 °F 29.6 °F 25.0 °F 64% 30.28 in 10.0 mi SSW 8.1 mph - N/A   Scattered Clouds
2:51 PM 37.0 °F 29.3 °F 26.1 °F 65% 30.26 in 10.0 mi SSW 11.5 mph - N/A   Partly Cloudy
3:51 PM 37.0 °F 29.8 °F 25.0 °F 62% 30.23 in 10.0 mi SSW 10.4 mph - N/A   Overcast
4:51 PM 37.0 °F 33.3 °F 27.0 °F 67% 30.23 in 10.0 mi SW 4.6 mph - N/A   Overcast
5:51 PM 36.0 °F - 27.0 °F 70% 30.22 in 10.0 mi Calm Calm - N/A   Overcast
6:51 PM 36.0 °F 32.1 °F 27.0 °F 70% 30.24 in 10.0 mi SW 4.6 mph - N/A   Overcast
7:51 PM 36.0 °F 31.1 °F 27.0 °F 70% 30.21 in 10.0 mi South 5.8 mph - 0.00 in   Overcast
8:51 PM 36.0 °F 33.3 °F 27.0 °F 70% 30.19 in 10.0 mi SSW 3.5 mph - N/A   Overcast
9:51 PM 35.1 °F 31.0 °F 28.0 °F 76% 30.20 in 10.0 mi South 4.6 mph - N/A   Overcast
10:51 PM 35.1 °F 31.0 °F 28.0 °F 76% 30.19 in 10.0 mi South 4.6 mph - N/A   Overcast
11:51 PM 35.6 °F 30.7 °F 28.4 °F 75% 30.15 in 10.0 mi SW 5.8 mph - N/A   Overcast